Creek Data

    Home     View Charts     View Raw Data     Messages

ID Distance Battery Voltage Battery Current Internal Temp Internal Humidity External Temp Solar Input rssi snr Time Stamp Record
36922 15.1 3.89 -5 41 41 42 0 -77 8 04/05/2025 03:15 AM 18786
36921 0.0 3.83 -5 42 41 45 0 -78 7 04/05/2025 03:00 AM 18785
36920 15.0 3.84 -5 43 41 45 0 -78 8 04/05/2025 02:45 AM 18784
36919 15.2 3.83 -5 43 40 46 0 -78 8 04/05/2025 02:30 AM 18783
36918 15.1 3.83 -5 44 40 47 0 -77 8 04/05/2025 02:15 AM 18782
36917 0.0 3.89 -5 44 41 47 0.1 -77 8 04/05/2025 02:00 AM 18781
36916 15.1 3.83 -5 43 42 46 0 -77 8 04/05/2025 01:45 AM 18780
36915 0.0 3.83 -5 44 42 44 0 -77 8 04/05/2025 01:31 AM 18779
36914 15.0 3.90 -5 45 42 47 0 -77 8 04/05/2025 01:15 AM 18778
36913 0.0 3.83 -5 47 41 49 0 -77 8 04/05/2025 01:00 AM 18777
36912 15.1 3.90 -5 47 41 50 0 -77 8 04/05/2025 12:45 AM 18776
36911 0.0 3.83 -5 48 41 49 0 -77 8 04/05/2025 12:30 AM 18775
36910 0.0 3.90 -5 48 41 50 0 -77 8 04/05/2025 12:15 AM 18774
36909 0.0 3.84 -5 49 41 50 0 -76 8 04/05/2025 12:00 AM 18773
36908 0.0 3.84 -5 50 41 51 0.1 -77 8 04/04/2025 11:45 PM 18772
36907 15.1 3.90 -5 51 41 53 0 -76 8 04/04/2025 11:30 PM 18771
36906 0.0 3.84 -11 51 41 52 0 -77 8 04/04/2025 11:15 PM 18770
36905 15.0 3.84 -5 52 41 53 0 -77 8 04/04/2025 11:00 PM 18769
36904 15.1 3.84 -5 52 41 54 0 -77 8 04/04/2025 10:45 PM 18768
36903 15.1 3.90 -5 53 41 54 0 -76 8 04/04/2025 10:30 PM 18767
36902 0.0 3.90 -5 53 41 55 0 -75 8 04/04/2025 10:15 PM 18766
36901 15.2 3.83 -5 53 42 55 0 -77 8 04/04/2025 10:00 PM 18765
36900 15.0 3.83 -5 54 42 56 0 -76 8 04/04/2025 09:45 PM 18764
36899 15.0 3.90 -5 54 42 56 0 -76 8 04/04/2025 09:30 PM 18763
36898 0.0 3.90 -5 54 43 56 0 -74 8 04/04/2025 09:15 PM 18762